West Point, VA

7:03 PM EST on February 14, 2016 (GMT -0500)
West Point

Weather History for KFYJ - May, 2012

Change the Weather History Date:

Friday, May 18, 2012

  Actual Average (KRIC) Record (KRIC)
Temperature  
Mean Temperature 62 °F 67 °F  
Max Temperature 75 °F 78 °F 95 °F (1962)
Min Temperature 50 °F 56 °F 38 °F (1973)
Degree Days  
Heating Degree Days 2 2  
Month to date heating degree days 56  
Since 1 July heating degree days 3748  
Cooling Degree Days 0 4  
Month to date cooling degree days 49  
Year to date cooling degree days 91  
Growing Degree Days 12 (Base 50)    
Moisture  
Dew Point 53 °F    
Average Humidity 71    
Maximum Humidity 100    
Minimum Humidity 42    
Precipitation  
Precipitation 0.00 in 0.13 in 1.67 in (1992)
Month to date precipitation 2.09  
Year to date precipitation 15.20  
Snow  
Snow 0.00 in 0.00 in 0.00 in (2002)
Month to date snowfall 0.0  
Since 1 July snowfall 10.3  
Snow Depth -    
Sea Level Pressure  
Sea Level Pressure 30.13 in    
Wind  
Wind Speed 4 mph (NE)    
Max Wind Speed 20 mph    
Max Gust Speed 25 mph    
Visibility 10 miles    
Events      
T = Trace of Precipitation, MM = Missing Value Source: NWS Daily Summary

Daily Weather History Graph

Daily Weather History Graph

Search for Another Location

Airport or City:

Trip Planner

Search our weather history database for the weather conditions in past years. The results will help you decide how hot, cold, wet, or windy it might be!

Date:

Astronomy

May. 18, 2012 Rise Set
Actual Time 5:55 AM EDT 8:12 PM EDT
Civil Twilight 5:25 AM EDT 8:42 PM EDT
Nautical Twilight 4:49 AM EDT 9:18 PM EDT
Astronomical Twilight 4:09 AM EDT 9:58 PM EDT
Moon 4:20 AM EDT (5/18) 6:20 PM EDT (5/18)
Length of Visible Light 15h 16m
Length of Day
14h 17m
Waning Crescent, 5% of the Moon is Illuminated
May 18
Waning Crescent
May 20
New
May 28
First Quarter
Jun 4
Full
Jun 11
Last Quarter

Hourly Weather History & Observations

Time (EDT) Temp. Dew Point Humidity Pressure Visibility Wind Dir Wind Speed Gust Speed Precip Events Conditions
12:15 AM 57.7 °F 57.7 °F 100% 30.11 in 10.0 mi Calm Calm - N/A   Clear
12:35 AM 57.2 °F 57.2 °F 100% 30.11 in 10.0 mi Calm Calm - N/A   Clear
12:55 AM 55.8 °F 55.8 °F 100% 30.11 in 7.0 mi Calm Calm - N/A   Clear
1:15 AM 55.8 °F 55.8 °F 100% 30.11 in 7.0 mi Calm Calm - N/A   Clear
1:35 AM 55.2 °F 55.2 °F 100% 30.10 in 1.2 mi Calm Calm - N/A   Unknown
1:55 AM 55.6 °F 55.6 °F 100% 30.10 in 7.0 mi Calm Calm - N/A   Clear
2:15 AM 55.2 °F 55.2 °F 100% 30.10 in 10.0 mi Calm Calm - N/A   Clear
2:35 AM 52.5 °F 52.5 °F 100% 30.10 in 10.0 mi Calm Calm - N/A   Clear
3:15 AM 55.4 °F 55.4 °F 100% 30.10 in 10.0 mi Calm Calm - N/A   Clear
3:35 AM 55.0 °F 55.0 °F 100% 30.10 in 10.0 mi Calm Calm - N/A   Clear
3:55 AM 54.9 °F 54.9 °F 100% 30.10 in 10.0 mi Calm Calm - N/A   Clear
4:15 AM 54.5 °F 54.5 °F 100% 30.10 in 10.0 mi Calm Calm - N/A   Clear
4:55 AM 52.7 °F 52.7 °F 100% 30.10 in 10.0 mi NNW 3.5 mph - N/A   Clear
5:15 AM 53.8 °F 53.8 °F 100% 30.11 in 10.0 mi Calm Calm - N/A   Clear
5:35 AM 52.9 °F 52.5 °F 99% 30.11 in 10.0 mi Calm Calm - N/A   Clear
5:55 AM 50.7 °F 50.7 °F 100% 30.11 in 10.0 mi Calm Calm - N/A   Clear
6:15 AM 53.2 °F 52.5 °F 97% 30.12 in 10.0 mi NNW 3.5 mph - N/A   Clear
6:35 AM 53.6 °F 52.3 °F 95% 30.12 in 10.0 mi Calm Calm - N/A   Clear
6:55 AM 54.5 °F 53.1 °F 95% 30.13 in 10.0 mi Calm Calm - N/A   Clear
7:15 AM 55.6 °F 53.4 °F 92% 30.13 in 10.0 mi Calm Calm - N/A   Clear
7:35 AM 58.3 °F 53.6 °F 84% 30.13 in 10.0 mi North 3.5 mph - N/A   Clear
7:55 AM 60.1 °F 53.8 °F 80% 30.13 in 10.0 mi NNE 3.5 mph - N/A   Clear
8:15 AM 61.9 °F 53.2 °F 73% 30.14 in 10.0 mi NE 3.5 mph - N/A   Clear
8:35 AM 62.8 °F 52.9 °F 70% 30.14 in 10.0 mi NNE 5.8 mph - N/A   Clear
8:55 AM 63.9 °F 52.7 °F 67% 30.15 in 10.0 mi NE 8.1 mph - N/A   Clear
9:15 AM 65.7 °F 52.7 °F 63% 30.16 in 10.0 mi NE 10.4 mph - N/A   Clear
9:35 AM 67.3 °F 51.3 °F 56% 30.15 in 10.0 mi ENE 11.5 mph 25.3 mph N/A   Clear
9:55 AM 67.8 °F 51.1 °F 55% 30.16 in 10.0 mi NE 9.2 mph 20.7 mph N/A   Clear
10:15 AM 69.3 °F 49.3 °F 49% 30.16 in 10.0 mi NE 15.0 mph 20.7 mph N/A   Clear
10:35 AM 70.7 °F 49.6 °F 47% 30.16 in 10.0 mi NE 10.4 mph 16.1 mph N/A   Clear
10:55 AM 70.7 °F 48.2 °F 45% 30.16 in 10.0 mi NE 13.8 mph 19.6 mph N/A   Clear
11:15 AM 70.7 °F 47.3 °F 43% 30.16 in 10.0 mi ENE 19.6 mph 23.0 mph N/A   Clear
11:35 AM 71.2 °F 48.4 °F 44% 30.16 in 10.0 mi NE 11.5 mph 20.7 mph N/A   Clear
11:55 AM 72.0 °F 50.2 °F 46% 30.16 in 10.0 mi NE 13.8 mph 18.4 mph N/A   Clear
12:15 PM 72.0 °F 50.7 °F 47% 30.16 in 10.0 mi NE 11.5 mph 21.9 mph N/A   Clear
12:35 PM 72.3 °F 51.4 °F 48% 30.16 in 10.0 mi NE 12.7 mph 19.6 mph N/A   Clear
12:55 PM 72.3 °F 52.3 °F 49% 30.15 in 10.0 mi East 15.0 mph 20.7 mph N/A   Clear
1:15 PM 72.7 °F 53.1 °F 50% 30.16 in 10.0 mi NNE 9.2 mph - N/A   Clear
1:35 PM 72.9 °F 53.6 °F 51% 30.15 in 10.0 mi ENE 10.4 mph - N/A   Clear
1:55 PM 73.2 °F 52.3 °F 48% 30.15 in 10.0 mi North 10.4 mph 16.1 mph N/A   Clear
2:15 PM 73.4 °F 52.7 °F 48% 30.15 in 10.0 mi NE 10.4 mph 17.3 mph N/A   Clear
2:35 PM 73.9 °F 51.3 °F 45% 30.14 in 10.0 mi NE 8.1 mph - N/A   Clear
2:55 PM 75.0 °F 52.5 °F 45% 30.13 in 10.0 mi NNE 9.2 mph 19.6 mph N/A   Clear
3:15 PM 75.2 °F 52.2 °F 44% 30.13 in 10.0 mi ENE 9.2 mph 17.3 mph N/A   Clear
3:35 PM 75.6 °F 51.1 °F 42% 30.13 in 10.0 mi NE 6.9 mph 16.1 mph N/A   Clear
3:55 PM 75.0 °F 50.7 °F 42% 30.12 in 10.0 mi ENE 11.5 mph 19.6 mph N/A   Clear
4:15 PM 74.1 °F 50.9 °F 44% 30.11 in 10.0 mi NE 8.1 mph - N/A   Clear
4:35 PM 74.5 °F 51.4 °F 44% 30.12 in 10.0 mi NE 8.1 mph - N/A   Clear
4:55 PM 74.3 °F 52.0 °F 46% 30.12 in 10.0 mi ENE 9.2 mph 16.1 mph N/A   Clear
5:15 PM 73.8 °F 52.5 °F 47% 30.12 in 10.0 mi East 9.2 mph 17.3 mph N/A   Clear
5:35 PM 73.2 °F 52.3 °F 48% 30.12 in 10.0 mi NE 8.1 mph - N/A   Clear
5:55 PM 72.0 °F 53.6 °F 52% 30.12 in 10.0 mi East 11.5 mph - N/A   Clear
6:15 PM 71.4 °F 53.6 °F 53% 30.12 in 10.0 mi ENE 9.2 mph - N/A   Clear
6:35 PM 70.9 °F 53.1 °F 53% 30.12 in 10.0 mi ENE 8.1 mph - N/A   Clear
6:55 PM 69.8 °F 53.2 °F 56% 30.13 in 10.0 mi ENE 5.8 mph - N/A   Clear
7:15 PM 68.5 °F 54.5 °F 61% 30.13 in 10.0 mi ENE 5.8 mph - N/A   Clear
7:35 PM 67.1 °F 53.1 °F 61% 30.13 in 10.0 mi ENE 5.8 mph - N/A   Clear
7:55 PM 65.7 °F 52.7 °F 63% 30.13 in 10.0 mi ENE 4.6 mph - N/A   Clear
8:15 PM 63.7 °F 53.2 °F 69% 30.14 in 10.0 mi Calm Calm - N/A   Clear
8:35 PM 62.8 °F 53.1 °F 71% 30.13 in 10.0 mi Calm Calm - N/A   Clear
8:55 PM 57.7 °F 53.2 °F 85% 30.13 in 10.0 mi Calm Calm - N/A   Clear
9:15 PM 56.5 °F 52.9 °F 88% 30.13 in 10.0 mi Calm Calm - N/A   Clear
9:35 PM 54.7 °F 52.7 °F 93% 30.14 in 10.0 mi Calm Calm - N/A   Clear
9:55 PM 55.2 °F 53.4 °F 94% 30.15 in 10.0 mi Calm Calm - N/A   Clear
10:15 PM 53.8 °F 51.8 °F 93% 30.15 in 10.0 mi Calm Calm - N/A   Clear
10:35 PM 55.0 °F 51.8 °F 89% 30.16 in 10.0 mi Calm Calm - N/A   Clear
10:55 PM 54.0 °F 51.4 °F 91% 30.16 in 10.0 mi Calm Calm - N/A   Clear
11:15 PM 55.6 °F 50.4 °F 83% 30.16 in 10.0 mi NNE 3.5 mph - N/A   Clear
11:35 PM 58.5 °F 48.4 °F 69% 30.15 in 10.0 mi NNE 3.5 mph - N/A   Clear
11:55 PM 52.7 °F 48.9 °F 87% 30.15 in 10.0 mi Calm Calm - N/A   Clear